Location: Huesca
(42.1318°N, 0.4078°W)
Time: 21:45:46
(UTC+02:00)

DIWATA 2B (PO-101) - Pass Details

Date: 25 April 2024
Orbit: 575 x 589 km, 98.1° (Epoch: 20 May)

Event Time Altitude Azimuth Distance (km) Brightness Sun altitude
Exits shadow 05:23:56 - 166° (SSE) 2,156 ? -17.4°
Reaches altitude 10° 05:24:31 10° 166° (SSE) 1,913 ? -17.3°
Maximum altitude 05:28:40 89° 247° (WSW) 596 ? -16.7°
Drops below altitude 10° 05:32:52 10° 347° (NNW) 1,925 ? -16.0°
Sets 05:35:02 0° 347° (NNW) 2,829 ? -15.7°
